[[{"header":{"parameterUnit":"m.s-1","parameterCategory":1,"la1":30.2991,"la2":30.254,"lo1":-89.0895,"lo2":-89.0444,"dy":0.0017,"dx":0.0017,"nx":28,"ny":28,"refTime":"2024-04-26T09:00:00:Z","depth":0,"parameterNumber":2,"parameterNumberName":"U-component_of_WINDS"},"data":[0,0,0,0,0,0,0,0,0,0,0,0,0,0,0,0,0,0,0,0,0,0,0,0,0,0,0,0,0,0,0,0,0,0,0,0,0,0,0,0,0,0,0,0,0,0,0,0,0,0,0,0,0,0,0,0,0,0,-0.7551,-0.755,0,-0.751,-0.7509,-0.7509,-0.7459,-0.7459,-0.7458,-0.7457,-0.7415,-0.7415,-0.7415,0,0,0,0,0,0,0,0,0,0,0,0,0,-0.7589,-0.7589,-0.7551,-0.755,-0.755,-0.751,-0.7509,-0.7508,-0.746,-0.7459,-0.7458,-0.7457,-0.7416,-0.7415,-0.7415,0,0,0,0,0,0,0,0,0,0,0,0,0,-0.7563,-0.7588,-0.7551,-0.7521,-0.7518,-0.751,-0.7509,-0.7508,-0.746,-0.7459,-0.7458,-0.7456,-0.7416,-0.7415,-0.7415,-0.7434,0,0,-0.7413,-0.7412,0,0,0,0,0,0,0,0,-0.7564,-0.7561,-0.7526,-0.7523,-0.7519,-0.7488,-0.7507,-0.7483,-0.746,-0.7482,-0.7457,-0.7456,-0.7441,-0.7438,-0.7433,-0.7432,-0.743,-0.7413,-0.7412,-0.7412,-0.7412,0,0,0,0,0,0,0,-0.7566,-0.7563,-0.7535,-0.7525,-0.7521,-0.751,-0.7505,-0.7502,-0.7468,-0.748,-0.7476,-0.7472,-0.7439,-0.7433,-0.7431,-0.7429,-0.7413,-0.7412,-0.7412,-0.7412,-0.7443,-0.7444,0,0,0,0,0,0,-0.7572,-0.7565,-0.7536,-0.7533,-0.7539,-0.751,-0.7504,-0.75,-0.7468,-0.7462,-0.7473,-0.747,-0.7435,-0.7432,-0.743,-0.7451,-0.7412,-0.7411,-0.7411,-0.7441,-0.7443,-0.7444,0,0,0,0,0,0,-0.7573,-0.757,-0.7538,-0.7548,-0.7543,-0.751,-0.7506,-0.7499,-0.7494,-0.7463,-0.7457,-0.7474,-0.7434,-0.7431,-0.7433,-0.7449,-0.7411,-0.7411,-0.744,-0.7442,-0.7444,-0.7492,0,0,0,0,0,0,-0.7575,-0.7571,-0.7577,-0.7548,-0.7543,-0.7542,-0.7506,-0.7499,-0.7493,-0.7488,-0.7462,-0.7456,-0.7433,-0.7434,-0.7433,-0.7447,-0.741,-0.7439,-0.7441,-0.7443,-0.7489,-0.7496,-0.7501,0,0,0,0,0,-0.7576,-0.7593,-0.7578,-0.7575,-0.755,-0.7542,-0.7539,-0.7512,-0.7494,-0.7501,-0.7481,-0.7457,-0.7447,-0.7435,-0.7433,-0.7447,-0.7437,-0.744,-0.7443,-0.7487,-0.7494,-0.7501,0,0,0,0,0,0,-0.7624,-0.7588,-0.7572,-0.7579,-0.7564,-0.7534,-0.7542,-0.7521,-0.751,-0.7507,-0.7473,-0.7467,-0.7474,-0.7461,-0.7448,-0.7464,-0.7439,-0.7441,-0.7473,-0.748,-0.7486,-0.7489,-0.741,0,0,0,0,0,-0.7636,-0.7633,-0.7601,-0.7611,-0.7604,-0.7575,-0.757,-0.755,-0.7534,-0.7527,-0.7507,-0.7492,-0.7486,-0.7482,-0.7474,-0.7487,-0.7481,-0.7496,-0.7502,-0.7507,-0.7509,-0.7516,-0.7523,-0.7453,-0.7453,-0.7453,0,0,-0.766,-0.764,-0.764,-0.762,-0.7606,-0.7604,-0.757,-0.7568,-0.7567,-0.7527,-0.7528,-0.7513,-0.7494,-0.7503,-0.7505,-0.7491,-0.7527,-0.751,-0.7514,-0.7514,-0.752,-0.7526,-0.7532,-0.7455,-0.7454,-0.7454,0,0,-0.7702,-0.7686,-0.7693,-0.768,-0.766,-0.764,-0.7641,-0.7615,-0.7603,-0.7604,-0.7574,-0.7572,-0.7561,-0.7549,-0.7541,-0.758,-0.7558,-0.7579,-0.761,-0.7617,-0.7622,-0.7627,-0.7642,-0.7647,-0.7581,-0.7581,-0.7581,0,-0.7735,-0.773,-0.77,-0.7701,-0.7694,-0.7657,-0.7665,-0.7653,-0.7631,-0.7628,-0.7612,-0.7599,-0.7583,-0.7589,-0.7598,-0.7593,-0.7594,-0.7582,-0.7624,-0.7628,-0.7632,-0.7646,-0.7652,-0.7584,-0.7584,-0.7583,-0.7583,0,-0.7771,-0.7769,-0.7777,-0.7757,-0.775,-0.7754,-0.7725,-0.7722,-0.7703,-0.7685,-0.7687,-0.7667,-0.7655,-0.7655,-0.7636,-0.7658,-0.765,-0.763,-0.7604,-0.7642,-0.7655,-0.766,-0.7588,-0.7587,-0.7586,-0.7585,0,0,-0.7844,-0.7807,-0.781,-0.7801,-0.7776,-0.7773,-0.7776,-0.7764,-0.7763,-0.7749,-0.7751,-0.7743,-0.7725,-0.7716,-0.7696,-0.7702,-0.7735,-0.7681,-0.768,-0.7693,-0.7759,-0.7775,-0.7782,-0.772,-0.7721,-0.7722,-0.7761,0,-0.7882,-0.7885,-0.7858,-0.7868,-0.7866,-0.7831,-0.7834,-0.7819,-0.7802,-0.7798,-0.7779,-0.7775,-0.775,-0.7745,-0.7749,-0.773,-0.7748,-0.7727,-0.7723,-0.7723,-0.7729,-0.7788,-0.7805,-0.7843,-0.7766,-0.7766,-0.7767,0,-0.7928,-0.7917,-0.7927,-0.7902,-0.79,-0.7903,-0.789,-0.7886,-0.7869,-0.7856,-0.7847,-0.7824,-0.7825,-0.78,-0.7802,-0.7788,-0.7785,-0.7775,-0.7776,-0.7775,-0.7748,-0.779,-0.7854,-0.7861,-0.7774,-0.7774,-0.7773,0,-0.7981,-0.7968,-0.7973,-0.7966,-0.7937,-0.794,-0.7928,-0.7909,-0.7904,-0.7893,-0.789,-0.7879,-0.7874,-0.7866,-0.7841,-0.7824,-0.7846,-0.7819,-0.7837,-0.7837,-0.7843,-0.7844,-0.7909,-0.784,-0.784,-0.784,-0.7839,0,-0.8028,-0.8036,-0.7997,-0.8,-0.8007,-0.7977,-0.7985,-0.797,-0.7954,-0.7954,-0.7923,-0.7924,-0.789,-0.7886,-0.7866,-0.7872,-0.7869,-0.786,-0.7855,-0.7863,-0.7865,-0.7861,-0.7858,-0.7841,-0.7841,-0.784,-0.784,0,-0.8089,-0.8063,-0.8066,-0.8038,-0.8031,-0.8038,-0.8014,-0.8016,-0.7998,-0.7998,-0.7996,-0.7967,-0.7962,-0.7935,-0.7924,-0.7911,-0.7924,-0.7912,-0.793,-0.7926,-0.7946,-0.7945,-0.8013,-0.8021,-0.7945,-0.7946,-0.7947,0,-0.8121,-0.8126,-0.8099,-0.8096,-0.8086,-0.8082,-0.8077,-0.8047,-0.8043,-0.8024,-0.8028,-0.802,-0.8013,-0.8006,-0.7984,-0.7976,-0.7965,-0.7989,-0.7963,-0.7972,-0.7966,-0.7967,-0.7968,-0.7995,-0.7996,-0.7997,-0.7997,0,-0.8181,-0.8168,-0.8161,-0.8151,-0.8145,-0.8135,-0.8123,-0.8123,-0.809,-0.8087,-0.8081,-0.8075,-0.8064,-0.8057,-0.8045,-0.8032,-0.801,-0.8005,-0.8009,-0.8019,-0.8029,-0.8025,-0.7946,-0.8004,-0.8004,-0.8003,-0.8003,-0.8002,-0.8229,-0.8233,-0.8214,-0.8208,-0.8196,-0.8186,-0.8186,-0.8168,-0.8162,-0.8151,-0.8133,-0.813,-0.8113,-0.8094,-0.8084,-0.8082,-0.8069,-0.8074,-0.8076,-0.8078,-0.8083,-0.8028,-0.8079,-0.8079,-0.8079,-0.8079,-0.8078,0,-0.8289,-0.8275,-0.827,-0.8254,-0.825,-0.8228,-0.8214,-0.8212,-0.821,-0.8196,-0.8189,-0.8183,-0.8176,-0.8154,-0.8145,-0.8147,-0.8137,-0.8146,-0.8146,-0.8144,-0.8094,-0.8092,-0.8155,-0.8155,-0.8155,-0.8155,-0.8155,-0.8155,-0.8319,-0.8324,-0.8309,-0.8308,-0.8294,-0.8291,-0.8285,-0.8276,-0.8264,-0.8259,-0.8253,-0.8239,-0.8222,-0.8211,-0.8204,-0.8198,-0.8197,-0.821,-0.82,-0.8154,-0.8147,-0.814,-0.8138,-0.8209,-0.8209,-0.825,-0.825,-0.825]},{"header":{"parameterUnit":"m.s-1","parameterCategory":1,"la1":30.2991,"la2":30.254,"lo1":-89.0895,"lo2":-89.0444,"dy":0.0017,"dx":0.0017,"nx":28,"ny":28,"refTime":"2024-04-26T09:00:00:Z","depth":0,"parameterNumber":3,"parameterNumberName":"V-component_of_WINDS"},"data":[0,0,0,0,0,0,0,0,0,0,0,0,0,0,0,0,0,0,0,0,0,0,0,0,0,0,0,0,0,0,0,0,0,0,0,0,0,0,0,0,0,0,0,0,0,0,0,0,0,0,0,0,0,0,0,0,0,0,4.0836,4.0836,0,4.084,4.084,4.084,4.0781,4.0779,4.0777,4.0776,4.0778,4.078,4.0781,0,0,0,0,0,0,0,0,0,0,0,0,0,4.0778,4.078,4.0836,4.0836,4.0836,4.084,4.084,4.084,4.0781,4.0779,4.0777,4.0775,4.0778,4.078,4.0782,0,0,0,0,0,0,0,0,0,0,0,0,0,4.0795,4.078,4.0836,4.0807,4.0805,4.084,4.084,4.084,4.0781,4.0779,4.0776,4.0774,4.0777,4.078,4.0782,4.0844,0,0,4.0789,4.079,0,0,0,0,0,0,0,0,4.0794,4.0797,4.0812,4.081,4.0807,4.0807,4.082,4.0841,4.0782,4.079,4.0776,4.0773,4.079,4.0791,4.0797,4.0844,4.0844,4.0789,4.0791,4.0792,4.0792,0,0,0,0,0,0,0,4.0793,4.0796,4.0838,4.0812,4.0809,4.0794,4.0794,4.0824,4.0803,4.0789,4.0785,4.0786,4.0788,4.0795,4.0796,4.0844,4.0789,4.0791,4.0793,4.0794,4.0941,4.0944,0,0,0,0,0,0,4.0796,4.0796,4.0837,4.0838,4.0794,4.0797,4.0797,4.0809,4.0803,4.08,4.0788,4.0784,4.0792,4.0794,4.0796,4.0867,4.0792,4.0794,4.0795,4.0939,4.0942,4.0945,0,0,0,0,0,0,4.0795,4.08,4.0837,4.0816,4.0819,4.0801,4.0815,4.0811,4.0817,4.0802,4.0798,4.0799,4.079,4.0793,4.0832,4.0867,4.0795,4.0797,4.0936,4.094,4.0943,4.1011,0,0,0,0,0,0,4.0793,4.08,4.0824,4.0817,4.0821,4.0874,4.0818,4.0813,4.0822,4.0815,4.0811,4.0808,4.0789,4.0829,4.0835,4.0869,4.0799,4.0933,4.0938,4.0942,4.1006,4.1017,4.1026,0,0,0,0,0,4.0791,4.0843,4.0825,4.083,4.085,4.0876,4.0878,4.0855,4.0825,4.0848,4.0838,4.0808,4.0863,4.0834,4.0839,4.0875,4.093,4.0936,4.0942,4.1001,4.1014,4.1026,0,0,0,0,0,0,4.0854,4.0841,4.0822,4.0872,4.0876,4.0866,4.0895,4.087,4.0882,4.0876,4.0846,4.0846,4.0889,4.0886,4.0854,4.0934,4.0891,4.0898,4.0934,4.0947,4.0957,4.0956,4.0801,0,0,0,0,0,4.0874,4.0896,4.0884,4.093,4.0932,4.0914,4.0924,4.0906,4.0908,4.0909,4.0902,4.0905,4.0922,4.0935,4.095,4.1005,4.1003,4.1032,4.1043,4.1051,4.1057,4.1085,4.1097,4.0963,4.0963,4.0963,0,0,4.0915,4.0911,4.0927,4.0942,4.0943,4.0966,4.0915,4.0942,4.0959,4.0913,4.0949,4.0945,4.0946,4.0993,4.1014,4.0992,4.1094,4.1058,4.1065,4.1067,4.1092,4.1105,4.1116,4.0967,4.0967,4.0966,0,0,4.1001,4.1001,4.1038,4.104,4.1041,4.1028,4.1037,4.1031,4.1026,4.1062,4.1028,4.1048,4.1079,4.1081,4.1086,4.1173,4.1145,4.1179,4.1232,4.1259,4.127,4.1279,4.1309,4.132,4.1185,4.1186,4.1186,0,4.1051,4.1085,4.106,4.109,4.1097,4.1057,4.1094,4.1097,4.1103,4.1109,4.1085,4.1123,4.1121,4.1167,4.1189,4.1195,4.1203,4.1179,4.127,4.1279,4.1288,4.1315,4.1327,4.119,4.1189,4.1189,4.1188,0,4.1147,4.1171,4.1201,4.1208,4.1219,4.1252,4.1232,4.1246,4.1227,4.1216,4.1253,4.125,4.1263,4.1273,4.1255,4.1317,4.1304,4.1276,4.1232,4.1305,4.133,4.1341,4.1195,4.1194,4.1193,4.1192,0,0,4.1271,4.1264,4.1275,4.1278,4.1276,4.1294,4.1326,4.1339,4.1351,4.1357,4.1382,4.1409,4.1383,4.1389,4.1371,4.1395,4.1462,4.1363,4.1363,4.1381,4.1529,4.1549,4.1562,4.1445,4.1447,4.1448,4.1528,0,4.1354,4.1406,4.1385,4.1439,4.146,4.1423,4.145,4.1452,4.1443,4.1459,4.145,4.1469,4.1434,4.1437,4.1459,4.1449,4.1491,4.1444,4.1466,4.1467,4.1465,4.1575,4.1597,4.1672,4.1538,4.154,4.1541,0,4.1457,4.1466,4.1523,4.1517,4.1525,4.155,4.156,4.1577,4.1578,4.1569,4.1576,4.1553,4.1582,4.154,4.158,4.1548,4.1556,4.1553,4.1555,4.1555,4.1508,4.1577,4.1696,4.1707,4.1557,4.1556,4.1555,0,4.154,4.1568,4.1605,4.1608,4.1602,4.162,4.1619,4.1618,4.1627,4.1636,4.1641,4.1654,4.166,4.167,4.165,4.1622,4.1693,4.1649,4.1686,4.1686,4.1701,4.17,4.1822,4.1709,4.1709,4.1709,4.1709,0,4.1633,4.1669,4.1642,4.1664,4.1703,4.1678,4.1717,4.1711,4.171,4.1731,4.17,4.1719,4.1693,4.171,4.1695,4.1729,4.1733,4.1727,4.1722,4.1729,4.1729,4.1732,4.1726,4.1712,4.1711,4.1711,4.171,0,4.1732,4.1716,4.1753,4.1745,4.1744,4.1772,4.1765,4.1785,4.1774,4.1801,4.1805,4.1788,4.1807,4.1788,4.1806,4.1796,4.1842,4.183,4.1841,4.1837,4.1875,4.1871,4.2001,4.2016,4.1896,4.1897,4.1898,0,4.1792,4.1818,4.1813,4.1824,4.1825,4.1844,4.1853,4.1829,4.184,4.1843,4.1863,4.1879,4.189,4.1922,4.1911,4.1924,4.1911,4.1956,4.1913,4.1918,4.191,4.1908,4.191,4.1964,4.1966,4.1967,4.1968,0,4.1899,4.189,4.1904,4.1916,4.1927,4.1935,4.1941,4.1952,4.1928,4.1941,4.196,4.1969,4.1986,4.2002,4.2012,4.201,4.1985,4.1982,4.1991,4.1997,4.2001,4.1998,4.1863,4.1978,4.1977,4.1977,4.1976,4.1976,4.1979,4.2001,4.2,4.2017,4.2018,4.2024,4.2042,4.2034,4.2049,4.2061,4.2047,4.2069,4.2069,4.208,4.2081,4.2098,4.2079,4.2092,4.2095,4.2098,4.2103,4.2,4.21,4.2099,4.2099,4.2099,4.2099,0,4.2084,4.2081,4.2097,4.2106,4.2119,4.2094,4.2099,4.2111,4.2132,4.2134,4.2146,4.2167,4.2182,4.2172,4.2185,4.2201,4.2189,4.2205,4.2202,4.2202,4.212,4.211,4.2214,4.2214,4.2213,4.2213,4.2213,4.2213,4.214,4.2174,4.2164,4.2199,4.2196,4.2218,4.2222,4.2227,4.2229,4.2253,4.2266,4.226,4.2257,4.2269,4.2282,4.2279,4.2284,4.2304,4.2296,4.2219,4.2208,4.2197,4.2188,4.2305,4.2306,4.2376,4.2377,4.2377]}]]